M I D A S
Marine Information and Data Acquisition System
Tripno 2275 of the Zeeleeuw from 2012-03-22 07:52:03 to 2012-03-22 16:22:12
Back to CruiseResearch ActivitiesStationsMapUnderway DataData graphs

EquipmentUnitsComments
TimeDGPSUTC
LatitudeDGPSDM.mWGS84
LongitudeDGPSDM.mWGS84
SpeedMeteo Stationm/sRelative wind speed
DirectionMeteo StationdegRelative wind direction
TemperatureMeteo Stationdeg CelciusAir temperature
PressureMeteo StationPaAtmospheric pressure
HumidityMeteo Station%Relative humidity
Missing or incorrect values are displayed as -999
Metereological data collected by the RV Zeeleeuw from 2012-03-22 07:26:42 to 2012-03-22 16:43:41
                                                                                    Next 1000 lines
Time Latitude Longitude Speed Direction Temperature Pressure Humidity
2012-03-22 07:26:51 51°13.634 2°56.019 -999 327 7.3 103080 50
2012-03-22 07:26:57 51°13.634 2°56.019 -999 34 7.3 103080 50
2012-03-22 07:27:02 51°13.635 2°56.019 -999 23 7.3 103070 50
2012-03-22 07:27:07 51°13.635 2°56.019 -999 237 7.3 103070 50
2012-03-22 07:27:11 51°13.635 2°56.019 -999 22 7.3 103080 50
2012-03-22 07:27:17 51°13.635 2°56.019 -999 34 7.3 103080 50
2012-03-22 07:27:21 51°13.635 2°56.019 -999 23 7.3 103080 50
2012-03-22 07:27:26 51°13.635 2°56.018 -999 34 7.3 103080 50
2012-03-22 07:27:32 51°13.635 2°56.018 -999 23 7.3 103080 50
2012-03-22 07:27:36 51°13.635 2°56.018 -999 34 7.3 103080 50
2012-03-22 07:27:42 51°13.635 2°56.018 -999 23 7.3 103080 50
2012-03-22 07:27:47 51°13.635 2°56.018 -999 324 7.3 103080 50
2012-03-22 07:27:52 51°13.635 2°56.018 -999 321 7.3 103080 51
2012-03-22 07:27:56 51°13.635 2°56.018 -999 34 7.3 103080 51
2012-03-22 07:28:02 51°13.635 2°56.018 -999 323 7.3 103080 50
2012-03-22 07:28:07 51°13.635 2°56.018 -999 35 7.3 103080 50
2012-03-22 07:28:12 51°13.635 2°56.018 -999 320 7.3 103080 50
2012-03-22 07:28:16 51°13.635 2°56.018 -999 34 7.3 103080 50
2012-03-22 07:28:22 51°13.635 2°56.018 -999 23 7.3 103070 51
2012-03-22 07:28:27 51°13.635 2°56.018 -999 315 7.3 103070 51
2012-03-22 07:28:32 51°13.635 2°56.018 -999 23 7.3 103080 51
2012-03-22 07:28:36 51°13.634 2°56.018 -999 34 7.3 103080 51
2012-03-22 07:28:41 51°13.635 2°56.018 -999 23 7.3 103080 51
2012-03-22 07:28:46 51°13.635 2°56.018 -999 324 7.3 103080 51
2012-03-22 07:28:51 51°13.635 2°56.018 -999 320 7.3 103070 51
2012-03-22 07:28:57 51°13.635 2°56.018 -999 34 7.3 103070 51
2012-03-22 07:29:01 51°13.635 2°56.019 -999 23 7.3 103080 50
2012-03-22 07:29:06 51°13.635 2°56.018 -999 34 7.3 103080 50
2012-03-22 07:29:11 51°13.635 2°56.018 -999 23 7.3 103080 50
2012-03-22 07:29:16 51°13.635 2°56.017 -999 35 7.3 103080 50
2012-03-22 07:29:21 51°13.635 2°56.017 -999 320 7.4 103080 51
2012-03-22 07:29:27 51°13.635 2°56.017 -999 34 7.4 103080 51
2012-03-22 07:29:32 51°13.635 2°56.017 -999 317 7.4 103080 51
2012-03-22 07:29:37 51°13.635 2°56.017 -999 237 7.4 103080 51
2012-03-22 07:29:42 51°13.635 2°56.017 -999 23 7.4 103070 51
2012-03-22 07:29:46 51°13.635 2°56.017 -999 34 7.4 103070 51
2012-03-22 07:29:52 51°13.635 2°56.017 -999 329 7.4 103080 51
2012-03-22 07:29:57 51°13.635 2°56.017 -999 35 7.4 103080 51
2012-03-22 07:30:02 51°13.635 2°56.017 -999 23 7.4 103070 50
2012-03-22 07:30:06 51°13.635 2°56.017 -999 315 7.4 103070 50
2012-03-22 07:30:11 51°13.635 2°56.017 -999 317 7.4 103080 50
2012-03-22 07:30:16 51°13.635 2°56.017 -999 319 7.4 103080 50
2012-03-22 07:30:21 51°13.635 2°56.017 -999 318 7.4 103080 50
2012-03-22 07:30:26 51°13.635 2°56.017 -999 34 7.4 103080 50
2012-03-22 07:30:31 51°13.635 2°56.018 -999 23 7.4 103070 50
2012-03-22 07:30:36 51°13.635 2°56.018 -999 35 7.4 103070 50
2012-03-22 07:30:41 51°13.635 2°56.018 -999 23 7.4 103070 50
2012-03-22 07:30:46 51°13.635 2°56.018 -999 318 7.4 103070 50
2012-03-22 07:30:51 51°13.635 2°56.018 -999 315 7.4 103080 49
2012-03-22 07:30:56 51°13.635 2°56.018 -999 34 7.4 103080 49
2012-03-22 07:31:01 51°13.635 2°56.018 -999 23 7.4 103080 50
2012-03-22 07:31:07 51°13.635 2°56.018 -999 34 7.4 103080 50
2012-03-22 07:31:12 51°13.635 2°56.017 -999 23 7.4 103080 50
2012-03-22 07:31:17 51°13.635 2°56.017 -999 329 7.4 103080 50
2012-03-22 07:31:22 51°13.636 2°56.017 -999 321 7.4 103080 50
2012-03-22 07:31:27 51°13.636 2°56.017 -999 320 7.4 103080 50
2012-03-22 07:31:31 51°13.636 2°56.017 -999 22 7.4 103080 50
2012-03-22 07:31:37 51°13.636 2°56.016 -999 326 7.4 103080 50
2012-03-22 07:31:42 51°13.636 2°56.016 -999 323 7.5 103070 50
2012-03-22 07:31:47 51°13.636 2°56.016 -999 239 7.5 103070 50
2012-03-22 07:31:51 51°13.636 2°56.016 -999 23 7.4 103070 50
2012-03-22 07:31:57 51°13.636 2°56.016 -999 35 7.4 103070 50
2012-03-22 07:32:02 51°13.636 2°56.016 -999 23 7.5 103070 50
2012-03-22 07:32:07 51°13.636 2°56.016 -999 323 7.5 103070 50
2012-03-22 07:32:11 51°13.636 2°56.017 -999 316 7.5 103070 50
2012-03-22 07:32:16 51°13.636 2°56.017 -999 320 7.5 103070 50
2012-03-22 07:32:21 51°13.636 2°56.017 -999 22 7.5 103080 50
2012-03-22 07:32:26 51°13.636 2°56.017 -999 331 7.5 103080 50
2012-03-22 07:32:32 51°13.636 2°56.017 -999 322 7.5 103080 50
2012-03-22 07:32:36 51°13.636 2°56.017 -999 331 7.5 103080 50
2012-03-22 07:32:42 51°13.636 2°56.017 -999 322 7.5 103070 50
2012-03-22 07:32:47 51°13.636 2°56.017 -999 34 7.5 103070 50
2012-03-22 07:32:52 51°13.636 2°56.017 -999 23 7.5 103080 50
2012-03-22 07:32:56 51°13.636 2°56.017 -999 236 7.5 103080 50
2012-03-22 07:33:02 51°13.636 2°56.017 -999 23 7.5 103080 50
2012-03-22 07:33:07 51°13.636 2°56.017 -999 315 7.5 103080 50
2012-03-22 07:33:12 51°13.636 2°56.017 -999 23 7.5 103070 50
2012-03-22 07:33:16 51°13.636 2°56.017 -999 316 7.5 103070 50
2012-03-22 07:33:22 51°13.636 2°56.018 -999 23 7.5 103070 50
2012-03-22 07:33:27 51°13.636 2°56.018 -999 319 7.5 103070 50
2012-03-22 07:33:32 51°13.635 2°56.018 -999 323 7.5 103080 49
2012-03-22 07:33:36 51°13.635 2°56.018 -999 324 7.5 103080 49
2012-03-22 07:33:42 51°13.635 2°56.018 -999 23 7.5 103070 50
2012-03-22 07:33:47 51°13.635 2°56.018 -999 34 7.5 103070 50
2012-03-22 07:33:52 51°13.635 2°56.018 -999 319 7.6 103070 50
2012-03-22 07:33:57 51°13.635 2°56.018 -999 34 7.6 103070 50
2012-03-22 07:34:02 51°13.635 2°56.018 -999 323 7.6 103080 50
2012-03-22 07:34:07 51°13.635 2°56.018 -999 34 7.6 103080 50
2012-03-22 07:34:11 51°13.635 2°56.018 -999 23 7.6 103070 50
2012-03-22 07:34:16 51°13.635 2°56.018 -999 35 7.6 103070 50
2012-03-22 07:34:22 51°13.635 2°56.019 -999 23 7.6 103070 50
2012-03-22 07:34:27 51°13.635 2°56.019 -999 317 7.6 103070 50
2012-03-22 07:34:31 51°13.635 2°56.019 -999 324 7.6 103070 50
2012-03-22 07:34:36 51°13.635 2°56.019 -999 318 7.6 103070 50
2012-03-22 07:34:42 51°13.635 2°56.019 -999 23 7.6 103070 50
2012-03-22 07:34:47 51°13.635 2°56.019 -999 245 7.6 103070 50
2012-03-22 07:34:52 51°13.635 2°56.018 -999 23 7.6 103070 50
2012-03-22 07:34:56 51°13.635 2°56.018 -999 35 7.6 103070 50
2012-03-22 07:35:01 51°13.635 2°56.018 -999 23 7.6 103070 50
2012-03-22 07:35:07 51°13.635 2°56.018 -999 34 7.6 103070 50
2012-03-22 07:35:12 51°13.635 2°56.018 -999 317 7.6 103070 50
2012-03-22 07:35:16 51°13.635 2°56.018 -999 34 7.6 103070 50
2012-03-22 07:35:21 51°13.635 2°56.018 -999 23 7.6 103070 50
2012-03-22 07:35:26 51°13.635 2°56.018 -999 35 7.6 103070 50
2012-03-22 07:35:32 51°13.635 2°56.018 -999 325 7.6 103080 50
2012-03-22 07:35:36 51°13.635 2°56.018 -999 35 7.6 103080 50
2012-03-22 07:35:41 51°13.635 2°56.018 -999 23 7.6 103070 50
2012-03-22 07:35:46 51°13.635 2°56.018 -999 34 7.6 103070 50
2012-03-22 07:35:51 51°13.635 2°56.018 -999 23 7.7 103070 50
2012-03-22 07:35:56 51°13.635 2°56.018 -999 34 7.7 103070 50
2012-03-22 07:36:02 51°13.635 2°56.018 -999 23 7.7 103070 50
2012-03-22 07:36:07 51°13.635 2°56.018 -999 316 7.7 103070 50
2012-03-22 07:36:11 51°13.635 2°56.018 -999 315 7.7 103070 49
2012-03-22 07:36:16 51°13.636 2°56.018 -999 319 7.7 103070 49
2012-03-22 07:36:22 51°13.636 2°56.018 -999 23 7.7 103070 50
2012-03-22 07:36:27 51°13.636 2°56.018 -999 319 7.7 103070 50
2012-03-22 07:36:31 51°13.636 2°56.018 -999 23 7.7 103070 50
2012-03-22 07:36:36 51°13.636 2°56.018 -999 34 7.7 103070 50
2012-03-22 07:36:42 51°13.636 2°56.018 -999 23 7.7 103070 50
2012-03-22 07:36:47 51°13.636 2°56.018 -999 34 7.7 103070 50
2012-03-22 07:36:51 51°13.636 2°56.018 -999 23 7.7 103070 50
2012-03-22 07:36:56 51°13.636 2°56.018 -999 34 7.7 103070 50
2012-03-22 07:37:02 51°13.636 2°56.018 -999 23 7.7 103070 50
2012-03-22 07:37:07 51°13.637 2°56.018 -999 236 7.7 103070 50
2012-03-22 07:37:12 51°13.637 2°56.018 -999 23 7.7 103070 50
2012-03-22 07:37:16 51°13.637 2°56.018 -999 35 7.7 103070 50
2012-03-22 07:37:21 51°13.637 2°56.019 -999 316 7.8 103070 50
2012-03-22 07:37:27 51°13.637 2°56.019 -999 316 7.8 103070 50
2012-03-22 07:37:32 51°13.637 2°56.019 -999 324 7.8 103070 50
2012-03-22 07:37:36 51°13.637 2°56.019 -999 318 7.8 103070 50
2012-03-22 07:37:42 51°13.637 2°56.019 -999 317 7.8 103070 50
2012-03-22 07:37:46 51°13.637 2°56.019 -999 34 7.8 103070 50
2012-03-22 07:37:52 51°13.637 2°56.019 -999 327 7.8 103070 50
2012-03-22 07:37:56 51°13.637 2°56.019 -999 244 7.8 103070 50
2012-03-22 07:38:01 51°13.637 2°56.019 -999 23 7.8 103070 50
2012-03-22 07:38:06 51°13.637 2°56.019 -999 34 7.8 103070 50
2012-03-22 07:38:11 51°13.637 2°56.019 -999 315 7.8 103070 50
2012-03-22 07:38:16 51°13.637 2°56.019 -999 34 7.8 103070 50
2012-03-22 07:38:22 51°13.637 2°56.019 -999 23 7.8 103070 50
2012-03-22 07:38:27 51°13.636 2°56.019 -999 34 7.8 103070 50
2012-03-22 07:38:31 51°13.636 2°56.019 -999 24 7.8 103070 50
2012-03-22 07:38:36 51°13.636 2°56.019 -999 316 7.8 103070 50
2012-03-22 07:38:42 51°13.636 2°56.019 -999 23 7.8 103070 50
2012-03-22 07:38:47 51°13.636 2°56.019 -999 317 7.8 103070 50
2012-03-22 07:38:51 51°13.636 2°56.019 -999 23 7.8 103070 49
2012-03-22 07:38:56 51°13.636 2°56.019 -999 34 7.8 103070 49
2012-03-22 07:39:02 51°13.636 2°56.02 -999 323 7.8 103070 50
2012-03-22 07:39:07 51°13.636 2°56.02 -999 34 7.8 103070 50
2012-03-22 07:39:12 51°13.636 2°56.02 -999 23 7.8 103070 50
2012-03-22 07:39:16 51°13.636 2°56.02 -999 35 7.8 103070 50
2012-03-22 07:39:21 51°13.636 2°56.02 -999 316 7.8 103070 50
2012-03-22 07:39:27 51°13.636 2°56.02 -999 332 7.8 103070 50
2012-03-22 07:39:32 51°13.636 2°56.02 -999 316 7.8 103070 50
2012-03-22 07:39:36 51°13.636 2°56.02 -999 316 7.8 103070 50
2012-03-22 07:39:41 51°13.636 2°56.02 -999 23 7.9 103070 50
2012-03-22 07:39:46 51°13.636 2°56.021 -999 34 7.9 103070 50
2012-03-22 07:39:52 51°13.636 2°56.021 -999 23 7.9 103070 50
2012-03-22 07:39:56 51°13.636 2°56.021 -999 35 7.9 103070 50
2012-03-22 07:40:01 51°13.636 2°56.021 -999 23 7.9 103070 50
2012-03-22 07:40:06 51°13.636 2°56.021 -999 34 7.9 103070 50
2012-03-22 07:40:12 51°13.636 2°56.021 -999 324 7.9 103070 50
2012-03-22 07:40:16 51°13.636 2°56.021 -999 34 7.9 103070 50
2012-03-22 07:40:22 51°13.636 2°56.021 -999 23 7.9 103070 50
2012-03-22 07:40:26 51°13.636 2°56.021 -999 34 7.9 103070 50
2012-03-22 07:40:31 51°13.636 2°56.021 -999 23 7.9 103070 50
2012-03-22 07:40:36 51°13.636 2°56.021 -999 325 7.9 103070 50
2012-03-22 07:40:42 51°13.636 2°56.021 -999 317 7.9 103070 50
2012-03-22 07:40:46 51°13.636 2°56.021 -999 316 7.9 103070 50
2012-03-22 07:40:51 51°13.636 2°56.021 -999 250 7.9 103070 50
2012-03-22 07:40:56 51°13.636 2°56.021 -999 245 7.9 103070 50
2012-03-22 07:41:02 51°13.636 2°56.021 -999 23 7.9 103070 50
2012-03-22 07:41:07 51°13.636 2°56.021 -999 34 7.9 103070 50
2012-03-22 07:41:11 51°13.636 2°56.021 -999 23 8 103070 50
2012-03-22 07:41:16 51°13.636 2°56.021 -999 326 8 103070 50
2012-03-22 07:41:22 51°13.636 2°56.021 -999 318 8 103070 50
2012-03-22 07:41:27 51°13.636 2°56.021 -999 236 8 103070 50
2012-03-22 07:41:32 51°13.636 2°56.021 -999 23 8 103070 49
2012-03-22 07:41:36 51°13.636 2°56.021 -999 34 8 103070 49
2012-03-22 07:41:41 51°13.636 2°56.021 -999 23 8 103070 50
2012-03-22 07:41:47 51°13.636 2°56.021 -999 35 8 103070 50
2012-03-22 07:41:52 51°13.636 2°56.021 -999 325 8 103070 50
2012-03-22 07:41:56 51°13.636 2°56.021 -999 327 8 103070 50
2012-03-22 07:42:01 51°13.636 2°56.021 -999 325 8 103070 50
2012-03-22 07:42:06 51°13.636 2°56.021 -999 317 8 103070 50
2012-03-22 07:42:12 51°13.636 2°56.021 -999 23 8 103070 49
2012-03-22 07:42:16 51°13.636 2°56.021 -999 34 8 103070 49
2012-03-22 07:42:21 51°13.636 2°56.021 -999 23 8 103070 49
2012-03-22 07:42:26 51°13.636 2°56.021 -999 34 8 103070 49
2012-03-22 07:42:31 51°13.636 2°56.021 -999 23 8 103070 49
2012-03-22 07:42:36 51°13.636 2°56.021 -999 34 8 103070 49
2012-03-22 07:42:42 51°13.636 2°56.021 -999 23 8.1 103070 49
2012-03-22 07:42:46 51°13.636 2°56.02 -999 323 8.1 103070 49
2012-03-22 07:42:51 51°13.636 2°56.02 -999 339 8.1 103070 49
2012-03-22 07:42:56 51°13.636 2°56.02 -999 239 8.1 103070 49
2012-03-22 07:43:02 51°13.636 2°56.02 -999 23 8.1 103070 49
2012-03-22 07:43:07 51°13.636 2°56.02 -999 318 8.1 103070 49
2012-03-22 07:43:11 51°13.637 2°56.02 -999 326 8.1 103070 49
2012-03-22 07:43:16 51°13.637 2°56.02 -999 35 8.1 103070 49
2012-03-22 07:43:22 51°13.637 2°56.02 -999 319 8.1 103070 49
2012-03-22 07:43:27 51°13.637 2°56.02 -999 34 8.1 103070 49
2012-03-22 07:43:32 51°13.637 2°56.02 -999 23 8.1 103070 49
2012-03-22 07:43:36 51°13.637 2°56.02 -999 35 8.1 103070 49
2012-03-22 07:43:42 51°13.637 2°56.02 -999 23 8.1 103070 49
2012-03-22 07:43:47 51°13.637 2°56.02 -999 319 8.1 103070 49
2012-03-22 07:43:52 51°13.637 2°56.02 -999 23 8.1 103070 49
2012-03-22 07:43:56 51°13.637 2°56.02 -999 34 8.1 103070 49
2012-03-22 07:44:01 51°13.637 2°56.02 -999 319 8.1 103070 49
2012-03-22 07:44:07 51°13.637 2°56.019 -999 323 8.1 103070 49
2012-03-22 07:44:12 51°13.637 2°56.019 -999 315 8.1 103070 48
2012-03-22 07:44:16 51°13.637 2°56.019 -999 34 8.1 103070 48
2012-03-22 07:44:21 51°13.637 2°56.02 -999 23 8.2 103060 49
2012-03-22 07:44:26 51°13.637 2°56.02 -999 318 8.2 103060 49
2012-03-22 07:44:32 51°13.637 2°56.019 -999 320 8.2 103070 49
2012-03-22 07:44:36 51°13.636 2°56.019 -999 237 8.2 103070 49
2012-03-22 07:44:42 51°13.636 2°56.019 -999 23 8.2 103070 49
2012-03-22 07:44:46 51°13.636 2°56.019 -999 318 8.2 103070 49
2012-03-22 07:44:51 51°13.636 2°56.019 -999 23 8.2 103070 49
2012-03-22 07:44:56 51°13.636 2°56.019 -999 237 8.2 103070 49
2012-03-22 07:45:02 51°13.636 2°56.019 -999 324 8.2 103060 49
2012-03-22 07:45:07 51°13.637 2°56.02 -999 238 8.2 103060 49
2012-03-22 07:45:11 51°13.637 2°56.02 -999 23 8.2 103060 49
2012-03-22 07:45:16 51°13.637 2°56.019 -999 34 8.2 103060 49
2012-03-22 07:45:22 51°13.637 2°56.02 -999 320 8.2 103070 49
2012-03-22 07:45:27 51°13.637 2°56.02 -999 34 8.2 103070 49
2012-03-22 07:45:31 51°13.637 2°56.019 -999 23 8.2 103070 49
2012-03-22 07:45:36 51°13.637 2°56.019 -999 323 8.2 103070 49
2012-03-22 07:45:42 51°13.637 2°56.019 -999 320 8.2 103070 49
2012-03-22 07:45:47 51°13.637 2°56.019 -999 34 8.2 103070 49
2012-03-22 07:45:52 51°13.637 2°56.019 -999 23 8.2 103070 49
2012-03-22 07:45:56 51°13.637 2°56.019 -999 34 8.2 103070 49
2012-03-22 07:46:02 51°13.637 2°56.019 -999 23 8.3 103060 49
2012-03-22 07:46:07 51°13.637 2°56.019 -999 34 8.3 103060 49
2012-03-22 07:46:12 51°13.637 2°56.019 -999 23 8.3 103070 49
2012-03-22 07:46:16 51°13.637 2°56.019 -999 321 8.3 103070 49
2012-03-22 07:46:21 51°13.637 2°56.019 -999 325 8.2 103070 49
2012-03-22 07:46:26 51°13.637 2°56.019 -999 327 8.2 103070 49
2012-03-22 07:46:32 51°13.637 2°56.019 -999 23 8.3 103070 49
2012-03-22 07:46:36 51°13.637 2°56.019 -999 34 8.3 103070 49
2012-03-22 07:46:41 51°13.637 2°56.019 -999 319 8.3 103070 49
2012-03-22 07:46:46 51°13.637 2°56.019 -999 324 8.3 103070 49
2012-03-22 07:46:52 51°13.637 2°56.019 -999 320 8.3 103070 48
2012-03-22 07:46:56 51°13.637 2°56.019 -999 332 8.3 103070 48
2012-03-22 07:47:02 51°13.637 2°56.019 -999 23 8.3 103070 49
2012-03-22 07:47:06 51°13.637 2°56.019 -999 34 8.3 103070 49
2012-03-22 07:47:11 51°13.637 2°56.019 -999 23 8.3 103070 49
2012-03-22 07:47:16 51°13.637 2°56.019 -999 34 8.3 103070 49
2012-03-22 07:47:22 51°13.637 2°56.019 -999 23 8.3 103070 49
2012-03-22 07:47:26 51°13.637 2°56.019 -999 35 8.3 103070 49
2012-03-22 07:47:31 51°13.637 2°56.019 -999 23 8.3 103070 49
2012-03-22 07:47:36 51°13.637 2°56.019 -999 34 8.3 103070 49
2012-03-22 07:47:42 51°13.637 2°56.019 -999 23 8.3 103060 49
2012-03-22 07:47:47 51°13.637 2°56.019 -999 325 8.3 103060 49
2012-03-22 07:47:51 51°13.637 2°56.019 -999 326 8.3 103070 49
2012-03-22 07:47:56 51°13.637 2°56.019 -999 34 8.3 103070 49
2012-03-22 07:48:02 51°13.636 2°56.019 -999 323 8.3 103070 49
2012-03-22 07:48:07 51°13.636 2°56.019 -999 324 8.3 103070 49
2012-03-22 07:48:12 51°13.636 2°56.019 -999 322 8.3 103070 49
2012-03-22 07:48:16 51°13.636 2°56.019 -999 34 8.3 103070 49
2012-03-22 07:48:21 51°13.636 2°56.019 -999 323 8.3 103070 49
2012-03-22 07:48:27 51°13.636 2°56.019 -999 323 8.3 103070 49
2012-03-22 07:48:32 51°13.636 2°56.019 -999 23 8.3 103070 49
2012-03-22 07:48:36 51°13.636 2°56.019 -999 35 8.3 103070 49
2012-03-22 07:48:41 51°13.636 2°56.019 -999 23 8.3 103070 49
2012-03-22 07:48:46 51°13.636 2°56.019 -999 34 8.3 103070 49
2012-03-22 07:48:52 51°13.636 2°56.019 -999 23 8.4 103070 49
2012-03-22 07:48:56 51°13.636 2°56.019 -999 318 8.4 103070 49
2012-03-22 07:49:01 51°13.636 2°56.019 -999 322 8.4 103070 49
2012-03-22 07:49:06 51°13.636 2°56.019 -999 340 8.4 103070 49
2012-03-22 07:49:12 51°13.636 2°56.019 -999 332 8.4 103070 49
2012-03-22 07:49:16 51°13.636 2°56.019 -999 323 8.4 103070 49
2012-03-22 07:49:22 51°13.636 2°56.019 -999 330 8.4 103070 49
2012-03-22 07:49:26 51°13.636 2°56.019 -999 324 8.4 103070 49
2012-03-22 07:49:31 51°13.636 2°56.018 -999 319 8.4 103070 48
2012-03-22 07:49:36 51°13.636 2°56.018 -999 323 8.4 103070 48
2012-03-22 07:49:41 51°13.636 2°56.018 -999 23 8.4 103070 49
2012-03-22 07:49:47 51°13.636 2°56.018 -999 329 8.4 103070 49
2012-03-22 07:49:51 51°13.636 2°56.018 -999 328 8.4 103060 49
2012-03-22 07:49:56 51°13.636 2°56.018 -999 317 8.4 103060 49
2012-03-22 07:50:02 51°13.636 2°56.018 -999 315 8.4 103070 49
2012-03-22 07:50:06 51°13.636 2°56.018 -999 35 8.4 103070 49
2012-03-22 07:50:11 51°13.636 2°56.018 -999 23 8.4 103070 49
2012-03-22 07:50:16 51°13.636 2°56.019 -999 321 8.4 103070 49
2012-03-22 07:50:22 51°13.636 2°56.019 -999 317 8.4 103070 49
2012-03-22 07:50:27 51°13.636 2°56.019 -999 316 8.4 103070 49
2012-03-22 07:50:32 51°13.636 2°56.019 -999 23 8.4 103070 49
2012-03-22 07:50:36 51°13.636 2°56.019 -999 34 8.4 103070 49
2012-03-22 07:50:41 51°13.636 2°56.019 -999 318 8.4 103070 49
2012-03-22 07:50:47 51°13.636 2°56.019 -999 338 8.4 103070 49
2012-03-22 07:50:52 51°13.636 2°56.019 -999 324 8.4 103070 48
2012-03-22 07:50:56 51°13.636 2°56.019 -999 319 8.4 103070 48
2012-03-22 07:51:01 51°13.636 2°56.019 -999 321 8.4 103070 48
2012-03-22 07:51:06 51°13.636 2°56.019 -999 319 8.4 103070 48
2012-03-22 07:51:12 51°13.636 2°56.019 -999 324 8.4 103070 49
2012-03-22 07:51:16 51°13.636 2°56.019 -999 317 8.4 103070 49
2012-03-22 07:51:21 51°13.636 2°56.019 -999 317 8.4 103070 49
2012-03-22 07:51:26 51°13.636 2°56.019 -999 244 8.4 103070 49
2012-03-22 07:51:31 51°13.636 2°56.019 -999 23 8.4 103070 49
2012-03-22 07:51:36 51°13.636 2°56.019 -999 324 8.4 103070 49
2012-03-22 07:51:42 51°13.635 2°56.019 -999 337 8.4 103070 49
2012-03-22 07:51:46 51°13.635 2°56.019 -999 319 8.4 103070 49
2012-03-22 07:51:51 51°13.635 2°56.019 -999 318 8.4 103070 49
2012-03-22 07:51:56 51°13.635 2°56.019 -999 330 8.4 103070 49
2012-03-22 07:52:02 51°13.635 2°56.019 -999 329 8.4 103070 49
2012-03-22 07:52:07 51°13.635 2°56.019 -999 34 8.4 103070 49
2012-03-22 07:52:11 51°13.635 2°56.019 -999 322 8.5 103070 48
2012-03-22 07:52:16 51°13.635 2°56.019 -999 324 8.5 103070 48
2012-03-22 07:52:22 51°13.635 2°56.019 -999 325 8.5 103070 49
2012-03-22 07:52:27 51°13.634 2°56.018 -999 338 8.5 103070 49
2012-03-22 07:52:32 51°13.634 2°56.018 -999 338 8.5 103070 49
2012-03-22 07:52:36 51°13.634 2°56.018 -999 338 8.5 103070 49
2012-03-22 07:52:41 51°13.634 2°56.018 -999 334 8.5 103070 49
2012-03-22 07:52:46 51°13.634 2°56.017 -999 350 8.5 103070 49
2012-03-22 07:52:51 51°13.635 2°56.016 -999 350 8.5 103070 49
2012-03-22 07:52:56 51°13.635 2°56.013 -999 350 8.5 103070 49
2012-03-22 07:53:01 51°13.635 2°56.009 -999 352 8.5 103070 49
2012-03-22 07:53:06 51°13.636 2°56.004 -999 358 8.5 103070 49
2012-03-22 07:53:11 51°13.636 2°55.998 -999 15 8.5 103070 49
2012-03-22 07:53:16 51°13.637 2°55.992 -999 5 8.5 103070 49
2012-03-22 07:53:21 51°13.638 2°55.986 -999 355 8.5 103070 49
2012-03-22 07:53:26 51°13.64 2°55.979 -999 3 8.5 103070 49
2012-03-22 07:53:31 51°13.641 2°55.972 -999 357 8.6 103070 49
2012-03-22 07:53:36 51°13.642 2°55.965 -999 5 8.6 103070 49
2012-03-22 07:53:41 51°13.643 2°55.958 -999 357 8.6 103070 49
2012-03-22 07:53:46 51°13.644 2°55.95 -999 2 8.6 103070 49
2012-03-22 07:53:51 51°13.646 2°55.943 -999 357 8.6 103070 49
2012-03-22 07:53:56 51°13.647 2°55.935 -999 354 8.6 103070 49
2012-03-22 07:54:01 51°13.648 2°55.928 -999 347 8.6 103070 49
2012-03-22 07:54:06 51°13.65 2°55.92 -999 349 8.6 103070 49
2012-03-22 07:54:11 51°13.652 2°55.912 -999 349 8.6 103070 49
2012-03-22 07:54:16 51°13.653 2°55.905 -999 353 8.6 103070 49
2012-03-22 07:54:21 51°13.656 2°55.897 -999 356 8.6 103070 49
2012-03-22 07:54:26 51°13.658 2°55.889 -999 336 8.6 103070 49
2012-03-22 07:54:31 51°13.659 2°55.881 -999 341 8.6 103070 49
2012-03-22 07:54:36 51°13.662 2°55.873 -999 339 8.6 103070 49
2012-03-22 07:54:41 51°13.664 2°55.865 -999 341 8.7 103070 49
2012-03-22 07:54:46 51°13.667 2°55.857 -999 322 8.7 103070 49
2012-03-22 07:54:51 51°13.669 2°55.85 -999 322 8.7 103070 48
2012-03-22 07:54:56 51°13.672 2°55.842 -999 321 8.7 103070 48
2012-03-22 07:55:01 51°13.675 2°55.834 -999 23 8.7 103070 49
2012-03-22 07:55:06 51°13.678 2°55.827 -999 35 8.7 103070 49
2012-03-22 07:55:11 51°13.681 2°55.819 -999 23 8.7 103070 49
2012-03-22 07:55:16 51°13.684 2°55.812 -999 323 8.7 103070 49
2012-03-22 07:55:21 51°13.688 2°55.804 -999 320 8.7 103070 49
2012-03-22 07:55:26 51°13.692 2°55.797 -999 35 8.7 103070 49
2012-03-22 07:55:31 51°13.695 2°55.79 -999 319 8.7 103080 49
2012-03-22 07:55:36 51°13.699 2°55.783 -999 34 8.7 103080 49
2012-03-22 07:55:41 51°13.704 2°55.776 -999 23 8.8 103070 49
2012-03-22 07:55:46 51°13.707 2°55.77 -999 239 8.8 103070 49
2012-03-22 07:55:51 51°13.711 2°55.763 -999 23 8.8 103080 49
2012-03-22 07:55:56 51°13.716 2°55.756 -999 35 8.8 103080 49
2012-03-22 07:56:01 51°13.72 2°55.749 -999 23 8.8 103070 49
2012-03-22 07:56:06 51°13.724 2°55.742 -999 237 8.8 103070 49
2012-03-22 07:56:11 51°13.729 2°55.736 -999 23 8.8 103070 49
2012-03-22 07:56:16 51°13.733 2°55.729 -999 251 8.8 103070 49
2012-03-22 07:56:21 51°13.738 2°55.722 -999 268 8.8 103080 49
2012-03-22 07:56:26 51°13.742 2°55.716 -999 269 8.8 103080 49
2012-03-22 07:56:31 51°13.747 2°55.71 -999 269 8.8 103080 49
2012-03-22 07:56:36 51°13.752 2°55.704 -999 35 8.8 103080 49
2012-03-22 07:56:41 51°13.757 2°55.697 -999 23 8.9 103080 49
2012-03-22 07:56:46 51°13.763 2°55.691 -999 258 8.9 103080 49
2012-03-22 07:56:51 51°13.768 2°55.686 -999 258 8.9 103080 49
2012-03-22 07:56:56 51°13.773 2°55.68 -999 258 8.9 103080 49
2012-03-22 07:57:01 51°13.779 2°55.674 -999 258 8.9 103080 49
2012-03-22 07:57:06 51°13.784 2°55.669 -999 258 8.9 103080 49
2012-03-22 07:57:11 51°13.79 2°55.663 -999 258 8.9 103080 49
2012-03-22 07:57:16 51°13.795 2°55.658 -999 255 8.9 103080 49
2012-03-22 07:57:21 51°13.801 2°55.653 -999 24 8.9 103080 48
2012-03-22 07:57:26 51°13.806 2°55.648 -999 320 8.9 103080 48
2012-03-22 07:57:31 51°13.812 2°55.643 -999 320 8.9 103080 48
2012-03-22 07:57:36 51°13.818 2°55.638 -999 244 8.9 103080 48
2012-03-22 07:57:41 51°13.824 2°55.634 -999 249 8.9 103070 48
2012-03-22 07:57:46 51°13.83 2°55.63 -999 265 8.9 103070 48
2012-03-22 07:57:51 51°13.836 2°55.626 -999 265 9 103080 48
2012-03-22 07:57:56 51°13.842 2°55.621 -999 265 9 103080 48
2012-03-22 07:58:01 51°13.847 2°55.617 -999 265 9 103080 49
2012-03-22 07:58:06 51°13.853 2°55.614 -999 263 9 103080 49
2012-03-22 07:58:11 51°13.859 2°55.611 -999 270 9 103080 49
2012-03-22 07:58:16 51°13.864 2°55.608 0.4 36 9 103080 49
2012-03-22 07:58:21 51°13.87 2°55.605 0.4 268 9 103080 49
2012-03-22 07:58:26 51°13.875 2°55.603 1.1 256 9 103080 49
2012-03-22 07:58:31 51°13.881 2°55.601 0.5 255 9.1 103080 49
2012-03-22 07:58:36 51°13.886 2°55.6 1.1 246 9.1 103080 49
2012-03-22 07:58:41 51°13.891 2°55.599 0.8 251 9.1 103080 49
2012-03-22 07:58:46 51°13.896 2°55.598 1.3 42 9.1 103080 49
2012-03-22 07:58:51 51°13.901 2°55.597 0.8 22 9.1 103080 49
2012-03-22 07:58:56 51°13.906 2°55.597 0.6 270 9.1 103080 49
2012-03-22 07:59:01 51°13.911 2°55.597 0.7 253 9.1 103070 48
2012-03-22 07:59:06 51°13.916 2°55.598 1.2 267 9.1 103070 48
2012-03-22 07:59:11 51°13.92 2°55.599 1.2 25 9.1 103080 49
2012-03-22 07:59:16 51°13.925 2°55.6 1.5 35 9.1 103080 49
2012-03-22 07:59:21 51°13.929 2°55.602 1.3 23 9.1 103080 48
2012-03-22 07:59:26 51°13.934 2°55.604 0.5 269 9.1 103080 48
2012-03-22 07:59:31 51°13.938 2°55.607 1 24 9.1 103080 48
2012-03-22 07:59:36 51°13.941 2°55.61 3.6 36 9.1 103080 48
2012-03-22 07:59:41 51°13.945 2°55.613 2.3 18 9.2 103080 48
2012-03-22 07:59:46 51°13.949 2°55.616 2.6 38 9.2 103080 48
2012-03-22 07:59:51 51°13.953 2°55.619 3.3 26 9.1 103080 47
2012-03-22 07:59:56 51°13.956 2°55.623 3.7 33 9.1 103080 47
2012-03-22 08:00:01 51°13.96 2°55.627 2.8 21 9.1 103080 47
2012-03-22 08:00:06 51°13.963 2°55.632 3 33 9.1 103080 47
2012-03-22 08:00:11 51°13.966 2°55.635 3.9 22 9.1 103080 46
2012-03-22 08:00:16 51°13.969 2°55.64 3.1 267 9.1 103080 46
2012-03-22 08:00:21 51°13.972 2°55.643 2.8 268 9.1 103080 48
2012-03-22 08:00:26 51°13.974 2°55.647 2.8 268 9.1 103080 48
2012-03-22 08:00:31 51°13.976 2°55.65 2.8 267 9 103080 46
2012-03-22 08:00:36 51°13.978 2°55.653 4 37 9 103080 46
2012-03-22 08:00:41 51°13.979 2°55.655 3.6 22 9 103080 47
2012-03-22 08:00:46 51°13.98 2°55.655 2.4 35 9 103080 47
2012-03-22 08:00:51 51°13.981 2°55.655 2.2 26 9 103080 47
2012-03-22 08:00:56 51°13.981 2°55.655 1.6 266 9 103080 47
2012-03-22 08:01:01 51°13.981 2°55.653 1.7 267 9 103080 46
2012-03-22 08:01:06 51°13.981 2°55.65 2.6 39 9 103080 46
2012-03-22 08:01:11 51°13.982 2°55.647 2.3 25 9 103080 47
2012-03-22 08:01:16 51°13.982 2°55.644 2.3 32 9 103080 47
2012-03-22 08:01:21 51°13.983 2°55.639 2.1 25 8.9 103080 47
2012-03-22 08:01:26 51°13.984 2°55.635 1.4 31 8.9 103080 47
2012-03-22 08:01:31 51°13.985 2°55.629 1.3 27 8.9 103080 48
2012-03-22 08:01:36 51°13.987 2°55.624 0.4 33 8.9 103080 48
2012-03-22 08:01:41 51°13.989 2°55.618 0.6 22 8.9 103080 47
2012-03-22 08:01:46 51°13.992 2°55.611 0.1 34 8.9 103080 47
2012-03-22 08:01:51 51°13.995 2°55.604 0.1 23 8.9 103080 47
2012-03-22 08:01:56 51°13.998 2°55.597 -999 34 8.9 103080 47
2012-03-22 08:02:01 51°14.002 2°55.59 -999 23 8.9 103080 48
2012-03-22 08:02:06 51°14.006 2°55.582 -999 25 8.9 103080 48
2012-03-22 08:02:11 51°14.01 2°55.573 -999 7 8.9 103080 47
2012-03-22 08:02:16 51°14.015 2°55.565 -999 4 8.9 103080 47
2012-03-22 08:02:21 51°14.02 2°55.556 -999 359 8.9 103080 48
2012-03-22 08:02:26 51°14.026 2°55.548 -999 350 8.9 103080 48
2012-03-22 08:02:31 51°14.032 2°55.539 -999 351 8.9 103080 48
2012-03-22 08:02:36 51°14.039 2°55.531 0.1 356 8.9 103080 48
2012-03-22 08:02:41 51°14.045 2°55.522 0.3 357 8.9 103080 48
2012-03-22 08:02:46 51°14.052 2°55.514 0.1 355 8.9 103080 48
2012-03-22 08:02:51 51°14.06 2°55.505 0.1 5 8.9 103080 47
2012-03-22 08:02:56 51°14.067 2°55.496 0.1 346 8.9 103080 47
2012-03-22 08:03:01 51°14.076 2°55.488 0.1 348 8.9 103080 47
2012-03-22 08:03:06 51°14.084 2°55.478 -999 355 8.9 103080 47
2012-03-22 08:03:11 51°14.093 2°55.469 -999 355 8.9 103080 47
2012-03-22 08:03:16 51°14.102 2°55.459 -999 353 8.9 103080 47
2012-03-22 08:03:21 51°14.111 2°55.45 0.1 351 8.9 103080 47
2012-03-22 08:03:26 51°14.12 2°55.44 0.1 351 8.9 103080 47
2012-03-22 08:03:31 51°14.13 2°55.43 0.1 345 8.9 103080 48
2012-03-22 08:03:36 51°14.14 2°55.421 0.1 343 8.9 103080 48
2012-03-22 08:03:41 51°14.149 2°55.41 1 345 8.9 103080 47
2012-03-22 08:03:46 51°14.159 2°55.4 1.3 1 8.9 103080 47
2012-03-22 08:03:51 51°14.169 2°55.39 0.8 2 8.9 103080 48
2012-03-22 08:03:56 51°14.179 2°55.38 0.1 357 8.9 103080 48
2012-03-22 08:04:01 51°14.188 2°55.369 0.1 357 8.8 103080 47
2012-03-22 08:04:06 51°14.199 2°55.359 0.3 353 8.8 103080 47
2012-03-22 08:04:11 51°14.209 2°55.349 0.1 19 8.8 103080 48
2012-03-22 08:04:16 51°14.219 2°55.339 0.1 17 8.8 103080 48
2012-03-22 08:04:21 51°14.229 2°55.33 -999 17 8.8 103080 48
2012-03-22 08:04:26 51°14.239 2°55.32 -999 6 8.8 103080 48
2012-03-22 08:04:31 51°14.25 2°55.31 -999 8 8.8 103080 48
2012-03-22 08:04:36 51°14.261 2°55.301 1.9 355 8.8 103080 48
2012-03-22 08:04:41 51°14.271 2°55.291 2.2 354 8.7 103080 48
2012-03-22 08:04:46 51°14.282 2°55.282 1.8 3 8.7 103080 48
2012-03-22 08:04:51 51°14.292 2°55.271 2.4 4 8.7 103080 48
2012-03-22 08:04:56 51°14.303 2°55.261 2.1 8 8.7 103080 48
2012-03-22 08:05:01 51°14.313 2°55.251 2.4 16 8.7 103080 47
2012-03-22 08:05:06 51°14.324 2°55.241 2.3 5 8.7 103080 47
2012-03-22 08:05:11 51°14.334 2°55.232 2.4 4 8.7 103080 49
2012-03-22 08:05:16 51°14.345 2°55.222 2.1 359 8.7 103080 49
2012-03-22 08:05:21 51°14.356 2°55.212 2.4 3 8.7 103080 48
2012-03-22 08:05:26 51°14.367 2°55.202 2.5 3 8.7 103080 48
2012-03-22 08:05:31 51°14.377 2°55.192 2.4 5 8.7 103080 48
2012-03-22 08:05:36 51°14.388 2°55.181 2.3 7 8.7 103080 48
2012-03-22 08:05:41 51°14.398 2°55.17 2.7 8 8.6 103070 48
2012-03-22 08:05:46 51°14.409 2°55.159 3.1 10 8.6 103070 48
2012-03-22 08:05:51 51°14.42 2°55.148 3.4 11 8.6 103070 49
2012-03-22 08:05:56 51°14.431 2°55.137 3.1 10 8.6 103070 49
2012-03-22 08:06:01 51°14.442 2°55.126 2.7 9 8.6 103070 49
2012-03-22 08:06:06 51°14.453 2°55.115 3.3 11 8.6 103070 49
2012-03-22 08:06:11 51°14.465 2°55.104 3.3 12 8.6 103080 48
2012-03-22 08:06:16 51°14.476 2°55.092 1.9 14 8.6 103080 48
2012-03-22 08:06:21 51°14.489 2°55.08 2 13 8.6 103070 49
2012-03-22 08:06:26 51°14.501 2°55.068 2.6 359 8.6 103070 49
2012-03-22 08:06:31 51°14.513 2°55.055 2.1 360 8.6 103070 49
2012-03-22 08:06:36 51°14.526 2°55.043 2.5 353 8.6 103070 49
2012-03-22 08:06:40 51°14.535 2°55.031 2.3 350 8.6 103080 48
2012-03-22 08:06:45 51°14.547 2°55.015 3 339 8.6 103080 48
2012-03-22 08:06:50 51°14.559 2°54.999 2.7 343 8.5 103070 49
2012-03-22 08:06:55 51°14.572 2°54.983 3 341 8.5 103070 49
2012-03-22 08:07:00 51°14.585 2°54.966 3.2 341 8.6 103070 49
2012-03-22 08:07:04 51°14.595 2°54.953 2.7 343 8.6 103070 49
2012-03-22 08:07:09 51°14.608 2°54.936 2.3 345 8.5 103070 48
2012-03-22 08:07:14 51°14.621 2°54.919 2.2 346 8.5 103070 48
2012-03-22 08:07:19 51°14.635 2°54.902 2.5 347 8.5 103070 49
2012-03-22 08:07:24 51°14.649 2°54.885 3.1 349 8.5 103070 49
2012-03-22 08:07:28 51°14.66 2°54.871 3.5 353 8.5 103070 49
2012-03-22 08:07:33 51°14.673 2°54.854 2.8 360 8.5 103070 49
2012-03-22 08:07:38 51°14.688 2°54.838 2.7 1 8.5 103070 49
2012-03-22 08:07:43 51°14.702 2°54.821 3 354 8.5 103070 49
2012-03-22 08:07:48 51°14.716 2°54.805 2.9 356 8.5 103070 48
2012-03-22 08:07:53 51°14.73 2°54.788 3 1 8.5 103070 48
2012-03-22 08:07:58 51°14.745 2°54.771 2.6 -999 8.5 103070 48
2012-03-22 08:08:03 51°14.759 2°54.755 3.2 2 8.5 103070 48
2012-03-22 08:08:08 51°14.774 2°54.739 3.2 359 8.5 103070 48
2012-03-22 08:08:12 51°14.786 2°54.726 4 357 8.5 103070 48
2012-03-22 08:08:18 51°14.803 2°54.708 4.2 356 8.5 103070 48
2012-03-22 08:08:23 51°14.818 2°54.691 2.9 352 8.5 103070 48
2012-03-22 08:08:28 51°14.832 2°54.675 2.9 357 8.5 103070 48
2012-03-22 08:08:32 51°14.844 2°54.663 3.5 351 8.5 103070 48
2012-03-22 08:08:38 51°14.862 2°54.645 3.5 351 8.4 103070 49
2012-03-22 08:08:43 51°14.877 2°54.63 3.9 350 8.4 103070 49
2012-03-22 08:08:48 51°14.893 2°54.616 3.9 349 8.4 103070 49
2012-03-22 08:08:53 51°14.908 2°54.602 3.9 347 8.4 103070 49
2012-03-22 08:08:58 51°14.923 2°54.587 3.8 347 8.4 103070 49
2012-03-22 08:09:03 51°14.938 2°54.573 3.8 349 8.4 103070 49
2012-03-22 08:09:08 51°14.953 2°54.558 3.5 347 8.4 103070 49
2012-03-22 08:09:13 51°14.968 2°54.544 4.3 348 8.4 103070 49
2012-03-22 08:09:18 51°14.983 2°54.531 4.1 348 8.4 103070 49
2012-03-22 08:09:23 51°14.999 2°54.518 4.6 350 8.4 103070 49
2012-03-22 08:09:28 51°15.014 2°54.506 4.5 346 8.4 103070 50
2012-03-22 08:09:33 51°15.03 2°54.493 5.2 352 8.4 103070 50
2012-03-22 08:09:38 51°15.046 2°54.481 5 351 8.4 103070 50
2012-03-22 08:09:43 51°15.061 2°54.469 5.3 346 8.4 103070 50
2012-03-22 08:09:48 51°15.077 2°54.458 5.1 349 8.3 103070 49
2012-03-22 08:09:53 51°15.093 2°54.448 4.5 350 8.3 103070 49
2012-03-22 08:09:58 51°15.109 2°54.437 4.6 349 8.3 103070 49
2012-03-22 08:10:03 51°15.124 2°54.427 4.3 346 8.3 103070 49
2012-03-22 08:10:08 51°15.14 2°54.417 4.9 348 8.3 103070 49
2012-03-22 08:10:12 51°15.153 2°54.409 5 349 8.3 103070 49
2012-03-22 08:10:18 51°15.172 2°54.399 4.9 349 8.3 103070 49
2012-03-22 08:10:23 51°15.188 2°54.391 5.3 349 8.3 103070 49
2012-03-22 08:10:28 51°15.204 2°54.384 5.1 350 8.3 103070 49
2012-03-22 08:10:32 51°15.217 2°54.379 5.7 349 8.3 103070 49
2012-03-22 08:10:38 51°15.237 2°54.372 5 348 8.3 103070 49
2012-03-22 08:10:43 51°15.253 2°54.366 5 355 8.3 103070 49
2012-03-22 08:10:48 51°15.269 2°54.36 5.1 352 8.3 103070 48
2012-03-22 08:10:52 51°15.282 2°54.355 5.4 350 8.3 103070 48
2012-03-22 08:10:58 51°15.301 2°54.349 5.3 351 8.3 103070 50
2012-03-22 08:11:03 51°15.317 2°54.343 5.3 351 8.3 103070 50
2012-03-22 08:11:08 51°15.334 2°54.337 5.2 352 8.3 103070 50
2012-03-22 08:11:13 51°15.35 2°54.332 5.5 351 8.3 103070 50
2012-03-22 08:11:18 51°15.366 2°54.327 5.3 349 8.3 103070 49
2012-03-22 08:11:23 51°15.383 2°54.322 5.3 349 8.3 103070 49
2012-03-22 08:11:28 51°15.399 2°54.317 4.9 347 8.3 103070 49
2012-03-22 08:11:33 51°15.416 2°54.312 5.5 349 8.3 103070 49
2012-03-22 08:11:38 51°15.432 2°54.306 5.9 348 8.3 103070 49
2012-03-22 08:11:43 51°15.448 2°54.301 5.5 345 8.3 103070 49
2012-03-22 08:11:48 51°15.465 2°54.296 5.4 347 8.3 103070 50
2012-03-22 08:11:53 51°15.481 2°54.291 5.2 350 8.3 103070 50
2012-03-22 08:11:58 51°15.498 2°54.286 5 343 8.3 103070 49
2012-03-22 08:12:03 51°15.514 2°54.281 5 349 8.3 103070 49
2012-03-22 08:12:08 51°15.531 2°54.276 5 346 8.3 103070 50
2012-03-22 08:12:13 51°15.547 2°54.271 5.9 343 8.3 103070 50
2012-03-22 08:12:18 51°15.564 2°54.267 5.1 344 8.3 103070 50
2012-03-22 08:12:23 51°15.58 2°54.263 3.5 343 8.3 103070 50
2012-03-22 08:12:28 51°15.597 2°54.259 3.9 345 8.3 103070 50
2012-03-22 08:12:32 51°15.61 2°54.257 5.6 343 8.3 103070 50
2012-03-22 08:12:38 51°15.63 2°54.253 5.8 343 8.3 103070 50
2012-03-22 08:12:43 51°15.647 2°54.25 5.8 345 8.3 103070 50
2012-03-22 08:12:48 51°15.663 2°54.249 5.5 342 8.3 103080 50
2012-03-22 08:12:52 51°15.676 2°54.247 5.9 343 8.3 103080 50
2012-03-22 08:12:58 51°15.696 2°54.246 5.2 344 8.3 103070 51
2012-03-22 08:13:03 51°15.713 2°54.244 5.6 344 8.3 103070 51
2012-03-22 08:13:08 51°15.729 2°54.242 5.8 343 8.3 103070 51
2012-03-22 08:13:12 51°15.742 2°54.24 5.5 344 8.3 103070 51
2012-03-22 08:13:18 51°15.762 2°54.237 5.5 344 8.3 103070 50
2012-03-22 08:13:23 51°15.779 2°54.234 4.1 344 8.3 103070 50
2012-03-22 08:13:28 51°15.795 2°54.231 5.4 344 8.3 103070 49
2012-03-22 08:13:33 51°15.812 2°54.228 6.2 344 8.3 103070 49
2012-03-22 08:13:38 51°15.828 2°54.226 5.9 344 8.3 103080 51
2012-03-22 08:13:43 51°15.844 2°54.223 5.9 345 8.3 103080 51
2012-03-22 08:13:48 51°15.861 2°54.22 5.9 347 8.3 103080 51
2012-03-22 08:13:53 51°15.877 2°54.217 5.7 346 8.3 103080 51
2012-03-22 08:13:58 51°15.894 2°54.214 6 346 8.3 103070 51
2012-03-22 08:14:03 51°15.91 2°54.209 5.7 347 8.3 103070 51
2012-03-22 08:14:08 51°15.926 2°54.205 5.9 346 8.3 103080 50
2012-03-22 08:14:13 51°15.943 2°54.2 5.6 346 8.3 103080 50
2012-03-22 08:14:18 51°15.959 2°54.195 5.6 347 8.3 103070 50
2012-03-22 08:14:23 51°15.975 2°54.189 4.1 348 8.3 103070 50
2012-03-22 08:14:28 51°15.992 2°54.184 5.6 348 8.2 103070 50
2012-03-22 08:14:33 51°16.008 2°54.178 5.2 349 8.2 103070 50
2012-03-22 08:14:38 51°16.023 2°54.174 5.7 350 8.2 103070 51
2012-03-22 08:14:43 51°16.038 2°54.17 5.3 350 8.2 103070 51
2012-03-22 08:14:48 51°16.052 2°54.167 5.6 351 8.2 103070 50
2012-03-22 08:14:52 51°16.062 2°54.165 5.3 352 8.2 103070 50
2012-03-22 08:14:58 51°16.077 2°54.162 5.8 352 8.2 103070 50
2012-03-22 08:15:03 51°16.089 2°54.161 5.2 354 8.2 103070 50
2012-03-22 08:15:08 51°16.1 2°54.159 5 353 8.2 103070 51
2012-03-22 08:15:12 51°16.109 2°54.158 4.9 354 8.2 103070 51
2012-03-22 08:15:18 51°16.121 2°54.156 4.3 355 8.2 103070 51
2012-03-22 08:15:23 51°16.13 2°54.155 4.8 355 8.2 103070 51
2012-03-22 08:15:28 51°16.139 2°54.153 4.5 355 8.2 103070 51
2012-03-22 08:15:32 51°16.146 2°54.152 4.6 356 8.2 103070 51
2012-03-22 08:15:38 51°16.156 2°54.15 4.1 357 8.2 103070 51
2012-03-22 08:15:43 51°16.164 2°54.149 4.2 358 8.2 103070 51
2012-03-22 08:15:48 51°16.171 2°54.147 4.1 358 8.2 103070 51
2012-03-22 08:15:53 51°16.179 2°54.145 4 360 8.2 103070 51
2012-03-22 08:15:58 51°16.186 2°54.142 3.9 -999 8.2 103070 51
2012-03-22 08:16:03 51°16.193 2°54.14 3.7 2 8.2 103070 51
2012-03-22 08:16:08 51°16.2 2°54.136 3.6 2 8.2 103070 50
2012-03-22 08:16:13 51°16.207 2°54.133 3.2 2 8.2 103070 50
2012-03-22 08:16:18 51°16.213 2°54.13 3.6 3 8.1 103070 52
2012-03-22 08:16:23 51°16.219 2°54.127 3.7 3 8.1 103070 52
2012-03-22 08:16:28 51°16.226 2°54.125 4 3 8.1 103080 50
2012-03-22 08:16:32 51°16.23 2°54.123 3.8 1 8.1 103080 50
2012-03-22 08:16:38 51°16.237 2°54.122 4.1 1 8.1 103070 51
2012-03-22 08:16:43 51°16.242 2°54.121 4.8 360 8.1 103070 51
2012-03-22 08:16:48 51°16.247 2°54.122 4.4 359 8.1 103070 51
2012-03-22 08:16:52 51°16.251 2°54.122 5 358 8.1 103070 51
2012-03-22 08:16:58 51°16.256 2°54.124 4.7 356 8.1 103070 51
2012-03-22 08:17:03 51°16.26 2°54.126 4.9 353 8.1 103070 51
2012-03-22 08:17:08 51°16.263 2°54.129 4.8 353 8.1 103070 51
2012-03-22 08:17:12 51°16.265 2°54.132 1.8 350 8.1 103070 51
2012-03-22 08:17:18 51°16.268 2°54.136 2 349 8.1 103070 51
2012-03-22 08:17:23 51°16.27 2°54.14 2.1 346 8.1 103070 51
2012-03-22 08:17:28 51°16.271 2°54.144 2.1 345 8.1 103070 51
2012-03-22 08:17:32 51°16.272 2°54.148 1.2 343 8.1 103070 51
2012-03-22 08:17:38 51°16.273 2°54.153 0.3 343 8.1 103070 51
2012-03-22 08:17:43 51°16.274 2°54.159 0.1 340 8.1 103070 51
2012-03-22 08:17:48 51°16.274 2°54.164 0.1 339 8.1 103070 51
2012-03-22 08:17:53 51°16.275 2°54.171 -999 340 8.1 103070 51
2012-03-22 08:17:58 51°16.275 2°54.177 -999 338 8.1 103070 51
2012-03-22 08:18:03 51°16.275 2°54.185 -999 338 8.1 103070 51
2012-03-22 08:18:08 51°16.275 2°54.192 -999 338 8.2 103070 51
2012-03-22 08:18:13 51°16.275 2°54.201 -999 337 8.2 103070 51
2012-03-22 08:18:18 51°16.276 2°54.209 -999 336 8.2 103070 51
2012-03-22 08:18:23 51°16.276 2°54.219 -999 336 8.2 103070 51
2012-03-22 08:18:28 51°16.276 2°54.228 -999 338 8.2 103070 51
2012-03-22 08:18:33 51°16.277 2°54.238 0.1 337 8.2 103070 51
2012-03-22 08:18:38 51°16.277 2°54.248 0.1 338 8.2 103070 51
2012-03-22 08:18:43 51°16.277 2°54.258 -999 337 8.2 103070 51
2012-03-22 08:18:48 51°16.277 2°54.268 -999 337 8.2 103070 50
2012-03-22 08:18:53 51°16.278 2°54.278 -999 339 8.2 103070 50
2012-03-22 08:18:58 51°16.278 2°54.289 -999 338 8.3 103070 51
2012-03-22 08:19:03 51°16.278 2°54.3 -999 337 8.3 103070 51
2012-03-22 08:19:08 51°16.278 2°54.31 -999 339 8.3 103070 51
2012-03-22 08:19:12 51°16.278 2°54.317 -999 339 8.3 103070 51
2012-03-22 08:19:18 51°16.277 2°54.326 -999 337 8.3 103070 51
2012-03-22 08:19:23 51°16.277 2°54.333 -999 336 8.3 103070 51
2012-03-22 08:19:28 51°16.275 2°54.34 -999 337 8.3 103070 51
2012-03-22 08:19:32 51°16.274 2°54.344 -999 334 8.3 103070 51
2012-03-22 08:19:38 51°16.272 2°54.349 -999 332 8.4 103070 51
2012-03-22 08:19:43 51°16.269 2°54.353 -999 330 8.4 103070 51
2012-03-22 08:19:48 51°16.267 2°54.356 -999 328 8.4 103070 51
2012-03-22 08:19:52 51°16.265 2°54.357 3.9 326 8.4 103070 51
2012-03-22 08:19:58 51°16.262 2°54.359 1.4 324 8.4 103070 51
2012-03-22 08:20:03 51°16.26 2°54.36 0.7 322 8.4 103070 51
2012-03-22 08:20:08 51°16.257 2°54.36 0.6 321 8.4 103070 51
2012-03-22 08:20:13 51°16.254 2°54.36 0.2 317 8.4 103070 51
2012-03-22 08:20:18 51°16.252 2°54.359 0.2 316 8.5 103070 50
2012-03-22 08:20:23 51°16.25 2°54.357 0.1 35 8.5 103070 50
2012-03-22 08:20:28 51°16.248 2°54.356 0.1 24 8.5 103070 51
2012-03-22 08:20:33 51°16.246 2°54.353 -999 35 8.5 103070 51
2012-03-22 08:20:38 51°16.244 2°54.351 0.1 18 8.5 103070 51
2012-03-22 08:20:43 51°16.243 2°54.347 0.1 34 8.5 103070 51
2012-03-22 08:20:48 51°16.242 2°54.344 0.1 23 8.5 103070 51
2012-03-22 08:20:53 51°16.241 2°54.341 -999 237 8.5 103070 51
2012-03-22 08:20:58 51°16.239 2°54.338 -999 23 8.5 103070 50
2012-03-22 08:21:03 51°16.238 2°54.335 -999 240 8.5 103070 50
2012-03-22 08:21:08 51°16.236 2°54.332 -999 23 8.6 103070 50
2012-03-22 08:21:13 51°16.235 2°54.329 -999 240 8.6 103070 50
2012-03-22 08:21:18 51°16.233 2°54.327 -999 23 8.6 103070 51
2012-03-22 08:21:23 51°16.231 2°54.325 -999 241 8.6 103070 51
2012-03-22 08:21:28 51°16.23 2°54.322 -999 23 8.6 103070 49
2012-03-22 08:21:32 51°16.228 2°54.32 -999 244 8.6 103070 49
2012-03-22 08:21:38 51°16.227 2°54.316 -999 23 8.6 103070 50
2012-03-22 08:21:43 51°16.225 2°54.313 -999 245 8.6 103070 50
2012-03-22 08:21:48 51°16.224 2°54.31 -999 247 8.6 103070 50
2012-03-22 08:21:52 51°16.222 2°54.308 -999 246 8.6 103070 50
2012-03-22 08:21:58 51°16.22 2°54.304 -999 247 8.7 103070 51
2012-03-22 08:22:03 51°16.219 2°54.301 -999 251 8.7 103070 51
2012-03-22 08:22:08 51°16.217 2°54.298 -999 251 8.7 103070 50
2012-03-22 08:22:13 51°16.216 2°54.294 -999 251 8.7 103070 50
2012-03-22 08:22:18 51°16.215 2°54.291 -999 251 8.7 103070 50
2012-03-22 08:22:23 51°16.213 2°54.288 -999 252 8.7 103070 50
2012-03-22 08:22:28 51°16.211 2°54.285 -999 251 8.7 103070 50
2012-03-22 08:22:33 51°16.21 2°54.282 -999 252 8.7 103070 50
2012-03-22 08:22:38 51°16.208 2°54.279 -999 252 8.8 103070 50
2012-03-22 08:22:43 51°16.207 2°54.276 -999 252 8.8 103070 50
2012-03-22 08:22:48 51°16.205 2°54.273 -999 250 8.8 103070 50
2012-03-22 08:22:53 51°16.204 2°54.27 0.1 251 8.8 103070 50
2012-03-22 08:22:58 51°16.202 2°54.267 0.1 254 8.8 103070 50
2012-03-22 08:23:03 51°16.2 2°54.264 0.1 254 8.8 103070 50
2012-03-22 08:23:08 51°16.199 2°54.261 -999 253 8.8 103070 50
2012-03-22 08:23:12 51°16.198 2°54.258 -999 257 8.8 103070 50
2012-03-22 08:23:18 51°16.196 2°54.254 -999 257 8.8 103070 50
2012-03-22 08:23:23 51°16.194 2°54.251 0.1 256 8.8 103070 50
2012-03-22 08:23:28 51°16.193 2°54.248 0.1 259 8.8 103070 50
2012-03-22 08:23:33 51°16.191 2°54.245 0.1 260 8.8 103070 50
2012-03-22 08:23:38 51°16.189 2°54.242 0.1 260 8.8 103070 50
2012-03-22 08:23:43 51°16.188 2°54.239 0.1 260 8.8 103070 50
2012-03-22 08:23:48 51°16.186 2°54.235 0.1 260 8.9 103070 50
2012-03-22 08:23:52 51°16.185 2°54.232 -999 263 8.9 103070 50
2012-03-22 08:23:58 51°16.184 2°54.228 0.1 262 8.9 103070 50
2012-03-22 08:24:03 51°16.182 2°54.225 0.1 262 8.9 103070 50
2012-03-22 08:24:08 51°16.181 2°54.222 0.1 264 8.9 103070 49
2012-03-22 08:24:12 51°16.179 2°54.219 -999 263 8.9 103070 49
2012-03-22 08:24:18 51°16.177 2°54.215 -999 264 8.9 103070 49
2012-03-22 08:24:23 51°16.176 2°54.212 -999 262 8.9 103070 49
2012-03-22 08:24:28 51°16.174 2°54.209 -999 264 8.9 103070 49
2012-03-22 08:24:33 51°16.173 2°54.206 -999 306 8.9 103070 49
2012-03-22 08:24:38 51°16.171 2°54.203 -999 263 8.9 103070 49
2012-03-22 08:24:43 51°16.169 2°54.199 -999 263 8.9 103070 49
2012-03-22 08:24:48 51°16.168 2°54.196 -999 269 8.9 103070 49
2012-03-22 08:24:53 51°16.166 2°54.193 -999 270 8.9 103070 49
2012-03-22 08:24:58 51°16.165 2°54.19 -999 269 8.9 103070 49
2012-03-22 08:25:03 51°16.163 2°54.186 0.1 269 8.9 103070 49
2012-03-22 08:25:08 51°16.161 2°54.183 0.1 270 8.9 103070 49
2012-03-22 08:25:12 51°16.16 2°54.181 0.1 267 8.9 103070 49
2012-03-22 08:25:18 51°16.158 2°54.177 -999 270 8.9 103070 49
2012-03-22 08:25:23 51°16.157 2°54.174 -999 267 8.9 103070 49
2012-03-22 08:25:28 51°16.155 2°54.17 -999 268 8.9 103070 49
2012-03-22 08:25:32 51°16.154 2°54.168 -999 270 8.9 103070 49
2012-03-22 08:25:38 51°16.152 2°54.164 -999 28 8.9 103070 49
2012-03-22 08:25:43 51°16.15 2°54.16 -999 37 8.9 103070 49
2012-03-22 08:25:48 51°16.149 2°54.157 -999 270 8.9 103070 49
2012-03-22 08:25:53 51°16.147 2°54.153 -999 35 8.9 103070 49
2012-03-22 08:25:58 51°16.146 2°54.15 -999 23 8.9 103070 49
2012-03-22 08:26:03 51°16.144 2°54.147 -999 34 8.9 103070 49
2012-03-22 08:26:08 51°16.143 2°54.143 -999 23 8.9 103070 49
2012-03-22 08:26:12 51°16.141 2°54.141 -999 35 8.9 103070 49
2012-03-22 08:26:18 51°16.14 2°54.137 -999 29 8.9 103070 49
2012-03-22 08:26:23 51°16.138 2°54.133 -999 35 8.9 103070 49
2012-03-22 08:26:28 51°16.137 2°54.13 -999 24 8.9 103070 49
2012-03-22 08:26:32 51°16.135 2°54.127 -999 35 8.9 103070 49
2012-03-22 08:26:38 51°16.134 2°54.123 -999 24 8.9 103070 49
2012-03-22 08:26:43 51°16.132 2°54.12 -999 35 8.9 103070 49
2012-03-22 08:26:48 51°16.131 2°54.116 -999 24 8.9 103070 48
2012-03-22 08:26:53 51°16.129 2°54.113 -999 54 8.9 103070 48
2012-03-22 08:26:58 51°16.128 2°54.11 -999 24 8.9 103070 49
2012-03-22 08:27:03 51°16.126 2°54.106 -999 35 8.9 103070 49
2012-03-22 08:27:08 51°16.125 2°54.103 -999 24 8.9 103070 49
2012-03-22 08:27:13 51°16.123 2°54.099 -999 35 8.9 103070 49
2012-03-22 08:27:18 51°16.121 2°54.096 -999 24 8.9 103070 49
2012-03-22 08:27:23 51°16.12 2°54.093 -999 35 8.9 103070 49
2012-03-22 08:27:28 51°16.118 2°54.089 -999 24 8.9 103070 49
2012-03-22 08:27:32 51°16.117 2°54.087 -999 35 8.9 103070 49
2012-03-22 08:27:38 51°16.115 2°54.083 -999 24 8.9 103070 49
2012-03-22 08:27:43 51°16.114 2°54.079 -999 35 8.9 103070 49
2012-03-22 08:27:48 51°16.112 2°54.076 -999 23 8.9 103070 49
2012-03-22 08:27:53 51°16.111 2°54.072 -999 35 8.9 103070 49
2012-03-22 08:27:58 51°16.109 2°54.069 -999 24 8.9 103070 49
2012-03-22 08:28:03 51°16.108 2°54.065 -999 35 8.9 103070 49
2012-03-22 08:28:08 51°16.106 2°54.061 -999 24 8.9 103070 49
2012-03-22 08:28:12 51°16.105 2°54.057 -999 54 8.9 103070 49
2012-03-22 08:28:18 51°16.103 2°54.052 -999 23 8.9 103070 49
2012-03-22 08:28:23 51°16.101 2°54.046 -999 35 8.9 103070 49
2012-03-22 08:28:28 51°16.099 2°54.041 -999 23 8.8 103070 49
2012-03-22 08:28:32 51°16.098 2°54.036 -999 35 8.8 103070 49
2012-03-22 08:28:38 51°16.096 2°54.029 -999 23 8.8 103070 49
2012-03-22 08:28:43 51°16.095 2°54.023 -999 35 8.8 103070 49
2012-03-22 08:28:48 51°16.094 2°54.017 -999 24 8.8 103070 49
2012-03-22 08:28:52 51°16.093 2°54.011 -999 35 8.8 103070 49
2012-03-22 08:28:58 51°16.092 2°54.003 -999 23 8.8 103070 49
2012-03-22 08:29:03 51°16.092 2°53.995 -999 35 8.8 103070 49
2012-03-22 08:29:08 51°16.091 2°53.987 -999 23 8.9 103070 50
2012-03-22 08:29:13 51°16.092 2°53.98 -999 39 8.9 103070 50
2012-03-22 08:29:18 51°16.092 2°53.972 -999 36 8.9 103080 50
2012-03-22 08:29:23 51°16.093 2°53.965 -999 31 8.9 103080 50
2012-03-22 08:29:28 51°16.095 2°53.958 -999 29 9 103070 49
2012-03-22 08:29:33 51°16.096 2°53.951 -999 22 9 103070 49
2012-03-22 08:29:38 51°16.098 2°53.945 -999 22 9 103070 50
2012-03-22 08:29:43 51°16.101 2°53.939 -999 18 9 103070 50
2012-03-22 08:29:48 51°16.103 2°53.934 -999 17 9 103070 50
2012-03-22 08:29:53 51°16.106 2°53.929 -999 13 9 103070 50
2012-03-22 08:29:58 51°16.11 2°53.924 -999 10 8.9 103070 49
2012-03-22 08:30:03 51°16.114 2°53.918 -999 8 8.9 103070 49
2012-03-22 08:30:08 51°16.12 2°53.913 -999 6 8.9 103070 49
2012-03-22 08:30:13 51°16.126 2°53.906 0.1 2 8.9 103070 49
2012-03-22 08:30:18 51°16.133 2°53.899 0.1 1 8.9 103070 49
2012-03-22 08:30:23 51°16.14 2°53.892 0.1 -999 8.9 103070 49
2012-03-22 08:30:28 51°16.149 2°53.884 -999 -999 8.9 103070 49
2012-03-22 08:30:32 51°16.155 2°53.878 -999 2 8.9 103070 49
2012-03-22 08:30:38 51°16.166 2°53.868 -999 359 8.9 103070 49
2012-03-22 08:30:43 51°16.175 2°53.858 -999 1 8.9 103070 49
2012-03-22 08:30:48 51°16.184 2°53.848 -999 360 8.9 103070 49
2012-03-22 08:30:52 51°16.191 2°53.839 -999 -999 8.9 103070 49
2012-03-22 08:30:58 51°16.202 2°53.826 -999 360 8.8 103070 49
2012-03-22 08:31:03 51°16.212 2°53.814 -999 359 8.8 103070 49
2012-03-22 08:31:08 51°16.221 2°53.802 -999 -999 8.8 103070 49
2012-03-22 08:31:12 51°16.228 2°53.793 -999 360 8.8 103070 49
2012-03-22 08:31:18 51°16.24 2°53.778 -999 359 8.8 103070 50
2012-03-22 08:31:23 51°16.25 2°53.765 0.1 -999 8.8 103070 50
2012-03-22 08:31:28 51°16.26 2°53.752 0.1 -999 8.7 103070 50
2012-03-22 08:31:33 51°16.27 2°53.738 -999 358 8.7 103070 50
2012-03-22 08:31:38 51°16.281 2°53.724 -999 359 8.7 103070 49
2012-03-22 08:31:43 51°16.291 2°53.71 -999 359 8.7 103070 49
2012-03-22 08:31:48 51°16.302 2°53.694 -999 359 8.7 103060 50
2012-03-22 08:31:53 51°16.312 2°53.678 -999 358 8.7 103060 50
2012-03-22 08:31:58 51°16.323 2°53.662 -999 359 8.7 103070 50
2012-03-22 08:32:03 51°16.334 2°53.646 -999 356 8.7 103070 50
2012-03-22 08:32:08 51°16.345 2°53.63 -999 357 8.7 103060 49
2012-03-22 08:32:13 51°16.356 2°53.613 -999 355 8.7 103060 49
2012-03-22 08:32:18 51°16.367 2°53.597 -999 356 8.7 103070 50
2012-03-22 08:32:23 51°16.378 2°53.58 -999 357 8.7 103070 50
2012-03-22 08:32:28 51°16.389 2°53.563 -999 357 8.6 103060 50
2012-03-22 08:32:32 51°16.398 2°53.55 -999 356 8.6 103060 50
2012-03-22 08:32:38 51°16.411 2°53.529 -999 355 8.6 103060 50
2012-03-22 08:32:43 51°16.422 2°53.512 -999 356 8.6 103060 50
2012-03-22 08:32:48 51°16.433 2°53.495 -999 355 8.6 103070 50
2012-03-22 08:32:52 51°16.442 2°53.482 -999 357 8.6 103070 50
2012-03-22 08:32:58 51°16.455 2°53.461 -999 355 8.6 103070 50
2012-03-22 08:33:03 51°16.466 2°53.445 -999 357 8.6 103070 50
2012-03-22 08:33:08 51°16.478 2°53.428 -999 357 8.6 103070 50
2012-03-22 08:33:12 51°16.487 2°53.415 -999 358 8.6 103070 50
2012-03-22 08:33:18 51°16.5 2°53.395 -999 358 8.5 103060 50
2012-03-22 08:33:23 51°16.512 2°53.379 -999 359 8.5 103060 50
2012-03-22 08:33:28 51°16.523 2°53.362 -999 358 8.5 103060 50
2012-03-22 08:33:32 51°16.532 2°53.349 -999 358 8.5 103060 50
2012-03-22 08:33:38 51°16.545 2°53.33 -999 358 8.5 103060 50
2012-03-22 08:33:43 51°16.556 2°53.314 -999 358 8.5 103060 50
2012-03-22 08:33:48 51°16.568 2°53.298 -999 357 8.5 103060 50
2012-03-22 08:33:53 51°16.579 2°53.282 -999 359 8.5 103060 50
2012-03-22 08:33:58 51°16.591 2°53.267 -999 360 8.5 103060 51
2012-03-22 08:34:03 51°16.602 2°53.252 -999 358 8.5 103060 51
2012-03-22 08:34:08 51°16.614 2°53.236 -999 358 8.5 103060 51
2012-03-22 08:34:13 51°16.626 2°53.221 -999 358 8.5 103060 51
2012-03-22 08:34:18 51°16.637 2°53.205 -999 358 8.5 103060 51
2012-03-22 08:34:23 51°16.649 2°53.189 -999 358 8.5 103060 51
2012-03-22 08:34:28 51°16.66 2°53.175 -999 358 8.4 103060 51
2012-03-22 08:34:33 51°16.672 2°53.16 -999 358 8.4 103060 51
2012-03-22 08:34:38 51°16.685 2°53.147 -999 358 8.4 103060 51
2012-03-22 08:34:43 51°16.697 2°53.133 -999 358 8.4 103060 51
2012-03-22 08:34:48 51°16.71 2°53.12 -999 358 8.4 103060 50
2012-03-22 08:34:53 51°16.723 2°53.106 -999 357 8.4 103060 50
2012-03-22 08:34:58 51°16.737 2°53.093 -999 356 8.4 103060 51
2012-03-22 08:35:03 51°16.75 2°53.079 -999 357 8.4 103060 51
2012-03-22 08:35:08 51°16.764 2°53.065 -999 357 8.4 103060 51
2012-03-22 08:35:12 51°16.775 2°53.053 -999 356 8.4 103060 51
2012-03-22 08:35:18 51°16.791 2°53.035 -999 357 8.3 103050 51
2012-03-22 08:35:23 51°16.804 2°53.018 -999 355 8.3 103050 51
2012-03-22 08:35:28 51°16.817 2°53.002 -999 357 8.3 103060 51
2012-03-22 08:35:32 51°16.828 2°52.989 -999 356 8.3 103060 51
2012-03-22 08:35:38 51°16.843 2°52.969 -999 356 8.3 103060 51
2012-03-22 08:35:43 51°16.856 2°52.952 -999 356 8.3 103060 51
2012-03-22 08:35:48 51°16.869 2°52.935 -999 355 8.3 103050 51
2012-03-22 08:35:53 51°16.881 2°52.918 0.1 356 8.3 103050 51
2012-03-22 08:35:58 51°16.893 2°52.9 0.5 356 8.3 103050 51
2012-03-22 08:36:03 51°16.906 2°52.883 0.1 356 8.3 103050 51
2012-03-22 08:36:08 51°16.919 2°52.866 0.1 356 8.2 103060 51
2012-03-22 08:36:13 51°16.932 2°52.848 5 354 8.2 103060 51
2012-03-22 08:36:18 51°16.945 2°52.831 4.7 355 8.2 103060 51
2012-03-22 08:36:23 51°16.958 2°52.814 4.5 355 8.2 103060 51
2012-03-22 08:36:28 51°16.971 2°52.797 4.3 355 8.2 103060 52
2012-03-22 08:36:33 51°16.984 2°52.779 4.4 355 8.2 103060 52
2012-03-22 08:36:38 51°16.997 2°52.761 4.6 355 8.2 103060 52
2012-03-22 08:36:43 51°17.01 2°52.744 5 355 8.2 103060 52
2012-03-22 08:36:48 51°17.024 2°52.727 5.1 355 8.1 103050 51
2012-03-22 08:36:53 51°17.037 2°52.71 4.8 357 8.1 103050 51
2012-03-22 08:36:58 51°17.05 2°52.692 4.8 356 8.1 103060 52
2012-03-22 08:37:03 51°17.062 2°52.672 4.4 355 8.1 103060 52
2012-03-22 08:37:08 51°17.075 2°52.653 4.7 355 8.1 103060 51
2012-03-22 08:37:12 51°17.085 2°52.638 4.6 355 8.1 103060 51
2012-03-22 08:37:18 51°17.099 2°52.615 4.5 354 8.1 103060 51
2012-03-22 08:37:23 51°17.111 2°52.595 2.7 354 8.1 103060 51
2012-03-22 08:37:28 51°17.123 2°52.575 1.9 353 8.1 103060 52
2012-03-22 08:37:32 51°17.132 2°52.56 0.1 355 8.1 103060 52
2012-03-22 08:37:38 51°17.147 2°52.537 0.1 355 8 103060 52
2012-03-22 08:37:43 51°17.159 2°52.518 -999 353 8 103060 52
2012-03-22 08:37:48 51°17.171 2°52.499 -999 355 8 103050 52
2012-03-22 08:37:52 51°17.181 2°52.484 -999 354 8 103050 52
2012-03-22 08:37:58 51°17.196 2°52.461 -999 353 8 103060 51
2012-03-22 08:38:03 51°17.209 2°52.443 -999 354 8 103060 51
2012-03-22 08:38:08 51°17.221 2°52.424 -999 353 8 103060 52
2012-03-22 08:38:13 51°17.234 2°52.405 -999 352 8 103060 52
2012-03-22 08:38:18 51°17.246 2°52.386 -999 354 7.9 103050 53
2012-03-22 08:38:23 51°17.259 2°52.368 -999 352 7.9 103050 53
2012-03-22 08:38:28 51°17.271 2°52.349 -999 355 7.9 103060 52
2012-03-22 08:38:33 51°17.284 2°52.33 -999 354 7.9 103060 52
2012-03-22 08:38:38 51°17.297 2°52.312 -999 354 7.9 103050 53
2012-03-22 08:38:43 51°17.31 2°52.293 -999 353 7.9 103050 53
2012-03-22 08:38:48 51°17.322 2°52.275 -999 353 7.9 103060 53
2012-03-22 08:38:53 51°17.335 2°52.257 -999 354 7.9 103060 53
2012-03-22 08:38:58 51°17.348 2°52.239 -999 354 7.8 103050 53
2012-03-22 08:39:03 51°17.361 2°52.221 -999 354 7.8 103050 53
2012-03-22 08:39:08 51°17.374 2°52.203 -999 353 7.8 103050 53
2012-03-22 08:39:13 51°17.388 2°52.185 -999 354 7.8 103050 53
2012-03-22 08:39:18 51°17.401 2°52.167 -999 355 7.8 103050 53
2012-03-22 08:39:23 51°17.414 2°52.149 -999 354 7.8 103050 53
2012-03-22 08:39:28 51°17.427 2°52.133 -999 353 7.8 103050 53
2012-03-22 08:39:32 51°17.438 2°52.12 -999 353 7.8 103050 53
2012-03-22 08:39:38 51°17.455 2°52.101 1.9 353 7.8 103050 53
2012-03-22 08:39:43 51°17.469 2°52.085 4.6 353 7.8 103050 53
2012-03-22 08:39:48 51°17.483 2°52.071 3.3 353 7.7 103050 53
2012-03-22 08:39:52 51°17.494 2°52.059 3.6 352 7.7 103050 53
2012-03-22 08:39:58 51°17.511 2°52.042 3.7 353 7.8 103050 53
2012-03-22 08:40:03 51°17.526 2°52.028 4 354 7.8 103050 53
2012-03-22 08:40:08 51°17.54 2°52.015 5.2 353 7.8 103050 52
2012-03-22 08:40:12 51°17.552 2°52.004 4.7 354 7.8 103050 52
2012-03-22 08:40:18 51°17.569 2°51.987 5.2 354 7.7 103050 53
2012-03-22 08:40:23 51°17.584 2°51.973 4.9 352 7.7 103050 53
2012-03-22 08:40:28 51°17.598 2°51.96 4.9 352 7.7 103050 54
2012-03-22 08:40:33 51°17.612 2°51.946 5.2 353 7.7 103050 54
2012-03-22 08:40:38 51°17.627 2°51.932 3.9 353 7.7 103050 53
2012-03-22 08:40:43 51°17.641 2°51.917 4.8 351 7.7 103050 53
2012-03-22 08:40:48 51°17.655 2°51.903 5 353 7.7 103050 54
2012-03-22 08:40:53 51°17.669 2°51.889 5.3 354 7.7 103050 54
2012-03-22 08:40:58 51°17.684 2°51.875 4 353 7.7 103050 53
2012-03-22 08:41:03 51°17.698 2°51.86 4 353 7.7 103050 53
2012-03-22 08:41:08 51°17.712 2°51.846 3.9 352 7.7 103050 54
2012-03-22 08:41:13 51°17.726 2°51.831 4 352 7.7 103050 54
2012-03-22 08:41:18 51°17.741 2°51.817 5.4 353 7.7 103050 54
2012-03-22 08:41:23 51°17.755 2°51.803 4 352 7.7 103050 54
2012-03-22 08:41:28 51°17.769 2°51.788 5 352 7.7 103050 54
2012-03-22 08:41:33 51°17.783 2°51.774 4.2 354 7.7 103050 54
2012-03-22 08:41:38 51°17.797 2°51.759 4.1 353 7.7 103050 54
2012-03-22 08:41:43 51°17.811 2°51.744 5.4 354 7.7 103050 54
2012-03-22 08:41:48 51°17.825 2°51.729 4.1 354 7.7 103050 53
2012-03-22 08:41:52 51°17.836 2°51.716 5.9 354 7.7 103050 53
2012-03-22 08:41:58 51°17.853 2°51.697 5.7 353 7.7 103050 53
2012-03-22 08:42:03 51°17.866 2°51.68 4.2 353 7.7 103050 53
2012-03-22 08:42:08 51°17.88 2°51.663 5.2 354 7.7 103050 54
2012-03-22 08:42:12 51°17.89 2°51.65 4.4 355 7.7 103050 54
2012-03-22 08:42:18 51°17.907 2°51.63 4.6 353 7.6 103050 54
2012-03-22 08:42:23 51°17.92 2°51.613 0.4 354 7.6 103050 54
2012-03-22 08:42:28 51°17.933 2°51.596 0.2 352 7.6 103050 53
2012-03-22 08:42:33 51°17.947 2°51.579 0.1 353 7.6 103050 53
2012-03-22 08:42:38 51°17.961 2°51.564 -999 351 7.6 103050 53
2012-03-22 08:42:43 51°17.975 2°51.549 -999 351 7.6 103050 53
2012-03-22 08:42:48 51°17.99 2°51.535 -999 351 7.7 103050 53
2012-03-22 08:42:53 51°18.004 2°51.521 -999 350 7.7 103050 53
2012-03-22 08:42:58 51°18.019 2°51.507 -999 350 7.6 103050 54
2012-03-22 08:43:03 51°18.034 2°51.493 -999 350 7.6 103050 54
2012-03-22 08:43:08 51°18.049 2°51.48 -999 350 7.6 103050 54
2012-03-22 08:43:13 51°18.064 2°51.466 -999 349 7.6 103050 54
2012-03-22 08:43:18 51°18.078 2°51.453 -999 350 7.6 103050 53
2012-03-22 08:43:23 51°18.093 2°51.439 -999 350 7.6 103050 53
2012-03-22 08:43:28 51°18.108 2°51.425 -999 351 7.6 103050 54
2012-03-22 08:43:33 51°18.123 2°51.411 -999 351 7.6 103050 54
2012-03-22 08:43:38 51°18.138 2°51.398 -999 350 7.6 103050 54
2012-03-22 08:43:43 51°18.152 2°51.384 -999 352 7.6 103050 54
2012-03-22 08:43:48 51°18.167 2°51.37 -999 352 7.6 103050 54
2012-03-22 08:43:52 51°18.179 2°51.358 -999 352 7.6 103050 54
2012-03-22 08:43:58 51°18.196 2°51.341 -999 353 7.6 103050 54
2012-03-22 08:44:03 51°18.211 2°51.327 -999 353 7.6 103050 54
2012-03-22 08:44:08 51°18.226 2°51.313 -999 352 7.6 103050 54
2012-03-22 08:44:12 51°18.237 2°51.301 -999 353 7.6 103050 54
2012-03-22 08:44:18 51°18.254 2°51.285 -999 353 7.6 103050 54
2012-03-22 08:44:23 51°18.267 2°51.272 -999 355 7.6 103050 54
2012-03-22 08:44:28 51°18.28 2°51.26 -999 356 7.6 103050 54
2012-03-22 08:44:32 51°18.289 2°51.25 -999 357 7.6 103050 54
2012-03-22 08:44:38 51°18.303 2°51.235 -999 358 7.6 103050 54
2012-03-22 08:44:43 51°18.314 2°51.223 -999 360 7.6 103050 54
2012-03-22 08:44:48 51°18.324 2°51.211 -999 358 7.6 103050 54
2012-03-22 08:44:53 51°18.334 2°51.199 -999 -999 7.6 103050 54
2012-03-22 08:44:58 51°18.344 2°51.186 -999 359 7.6 103050 54
2012-03-22 08:45:03 51°18.354 2°51.174 -999 360 7.6 103050 54
2012-03-22 08:45:08 51°18.363 2°51.161 -999 1 7.6 103060 54
2012-03-22 08:45:13 51°18.372 2°51.148 -999 4 7.6 103060 54
2012-03-22 08:45:18 51°18.38 2°51.136 -999 5 7.6 103060 54
2012-03-22 08:45:23 51°18.388 2°51.124 -999 6 7.6 103060 54
2012-03-22 08:45:28 51°18.396 2°51.113 -999 6 7.6 103060 53
2012-03-22 08:45:33 51°18.403 2°51.101 -999 7 7.6 103060 53
2012-03-22 08:45:38 51°18.41 2°51.09 -999 7 7.6 103060 54
2012-03-22 08:45:43 51°18.416 2°51.079 -999 10 7.6 103060 54
2012-03-22 08:45:48 51°18.422 2°51.069 -999 9 7.6 103060 54
2012-03-22 08:45:53 51°18.428 2°51.058 -999 13 7.6 103060 54
2012-03-22 08:45:58 51°18.433 2°51.047 -999 11 7.6 103060 53
2012-03-22 08:46:03 51°18.438 2°51.036 -999 13 7.6 103060 53
2012-03-22 08:46:08 51°18.443 2°51.024 -999 13 7.6 103060 54
2012-03-22 08:46:13 51°18.447 2°51.014 -999 15 7.6 103060 54
2012-03-22 08:46:18 51°18.451 2°51.003 -999 14 7.6 103060 54
2012-03-22 08:46:23 51°18.456 2°50.993 -999 10 7.6 103060 54
2012-03-22 08:46:28 51°18.461 2°50.984 -999 11 7.6 103060 54
2012-03-22 08:46:32 51°18.465 2°50.977 -999 7 7.6 103060 54
2012-03-22 08:46:38 51°18.471 2°50.969 -999 6 7.6 103060 54
2012-03-22 08:46:43 51°18.477 2°50.965 -999 1 7.6 103060 54
2012-03-22 08:46:48 51°18.483 2°50.962 -999 -999 7.6 103060 54
2012-03-22 08:46:53 51°18.489 2°50.96 -999 355 7.6 103060 54
2012-03-22 08:46:58 51°18.495 2°50.96 -999 352 7.6 103060 54
2012-03-22 08:47:03 51°18.5 2°50.962 -999 349 7.6 103060 54
2012-03-22 08:47:08 51°18.504 2°50.965 -999 283 7.6 103060 54
2012-03-22 08:47:12 51°18.507 2°50.968 -999 344 7.6 103060 54
2012-03-22 08:47:18 51°18.512 2°50.974 -999 343 7.6 103060 54
2012-03-22 08:47:23 51°18.514 2°50.98 -999 339 7.6 103060 54
2012-03-22 08:47:28 51°18.516 2°50.987 -999 283 7.7 103060 54
2012-03-22 08:47:33 51°18.518 2°50.995 -999 332 7.7 103060 54
2012-03-22 08:47:38 51°18.518 2°51.003 -999 331 7.6 103060 54
2012-03-22 08:47:43 51°18.517 2°51.011 -999 327 7.6 103060 54
2012-03-22 08:47:48 51°18.515 2°51.019 -999 283 7.7 103060 54
2012-03-22 08:47:52 51°18.513 2°51.025 -999 322 7.7 103060 54
2012-03-22 08:47:58 51°18.51 2°51.032 -999 321 7.7 103060 54
2012-03-22 08:48:03 51°18.508 2°51.036 -999 319 7.7 103060 54
2012-03-22 08:48:08 51°18.505 2°51.039 -999 317 7.7 103050 53
2012-03-22 08:48:13 51°18.502 2°51.042 -999 35 7.7 103050 53
2012-03-22 08:48:18 51°18.499 2°51.044 -999 23 7.7 103060 54
2012-03-22 08:48:23 51°18.496 2°51.045 -999 35 7.7 103060 54
2012-03-22 08:48:28 51°18.493 2°51.045 -999 23 7.8 103060 54
2012-03-22 08:48:32 51°18.491 2°51.045 -999 238 7.8 103060 54
2012-03-22 08:48:38 51°18.487 2°51.044 -999 283 7.8 103060 54
2012-03-22 08:48:43 51°18.485 2°51.043 -999 244 7.8 103060 54
2012-03-22 08:48:48 51°18.483 2°51.042 -999 23 7.8 103070 54
2012-03-22 08:48:52 51°18.481 2°51.04 -999 248 7.8 103070 54
2012-03-22 08:48:58 51°18.478 2°51.037 -999 251 7.8 103070 54
2012-03-22 08:49:03 51°18.477 2°51.035 -999 255 7.8 103070 54
2012-03-22 08:49:08 51°18.475 2°51.032 -999 255 7.9 103070 54
2012-03-22 08:49:12 51°18.475 2°51.03 -999 260 7.9 103070 54
2012-03-22 08:49:18 51°18.473 2°51.027 -999 259 7.9 103070 54
2012-03-22 08:49:23 51°18.472 2°51.024 -999 262 7.9 103070 54
2012-03-22 08:49:28 51°18.471 2°51.021 -999 283 7.9 103070 54
2012-03-22 08:49:33 51°18.47 2°51.018 -999 263 7.9 103070 54
2012-03-22 08:49:38 51°18.469 2°51.016 -999 264 7.9 103070 54
2012-03-22 08:49:43 51°18.468 2°51.013 -999 265 7.9 103070 54
2012-03-22 08:49:48 51°18.467 2°51.01 -999 283 8 103070 54
2012-03-22 08:49:52 51°18.466 2°51.008 -999 267 8 103070 54
2012-03-22 08:49:58 51°18.465 2°51.005 -999 266 8 103070 54